Temp
63 62 63 62 61 60 60 60 61 59 57 56 56 56 54 51 50 49 48 47 47 47
63 62 63 61 61 61 61 61 57 58 56 54 54 52 51 49 48 48 47 47 47 48
64 63 63 61 60 60 59 58 56 56 54 51 50 50 50 49 48 49 47 48 47 48
65 63 62 61 60 60 58 57 56 54 52 51 51 51 51 50 48 48 48 49 48 48
63 62 61 60 59 57 56 56 54 53 52 52 52 51 50 48 49 48 48 48 47 48
61 60 59 59 58 57 55 53 53 52 52 51 50 50 50 50 49 48 48 48 48 48
60 60 59 57 58 56 54 52 52 53 52 51 51 51 50 49 48 48 48 48 47 45
56 57 56 55 54 53 52 52 52 51 51 51 51 51 49 49 47 46 44 44 43 42
51 52 52 51 50 50 50 50 50 49 49 48 50 42 43 45 44 44 43 40 40 42
50 49 48 49 48 48 48 48 48 48 48 47 47 41 41 40 42 41 39 37 38 40
48 47 47 47 47 47 47 47 47 46 46 46 44 39 39 38 37 36 38 37 35 34
48 47 47 46 46 46 47 46 45 46 44 41 39 38 38 38 37 35 33 35 34 33
48 47 46 46 46 47 47 46 44 42 40 38 37 37 37 36 32 30 30 32 33 33
49 48 48 47 47 46 43 40 37 35 36 36 36 36 36 35 30 30 29 30 30 30
MSLP
1014.51 1014.57 1014.55 1014.75 1015.06 1015.36 1015.63 1015.89 1016.29 1016.58 1017.01 1017.66 1018.15 1018.69 1019.44 1020.13 1020.84 1021.39 1022.67 1022.69 1023.29 1024.01
1013.19 1013.46 1013.45 1013.72 1014.08 1014.33 1014.61 1015.08 1015.56 1016.17 1016.86 1017.35 1017.91 1018.43 1019.15 1019.99 1020.88 1021.53 1022.06 1022.67 1023.14 1023.62
1011.82 1012.16 1012.53 1013.09 1013.18 1013.55 1014.03 1014.55 1015.38 1016.00 1016.44 1017.13 1017.78 1018.47 1019.10 1019.74 1020.24 1020.93 1021.53 1021.92 1022.50 1023.26
1010.67 1011.11 1011.67 1012.04 1012.28 1012.73 1013.51 1014.36 1015.04 1015.58 1016.38 1016.80 1017.47 1018.02 1018.66 1019.26 1019.71 1020.45 1021.09 1021.52 1022.14 1022.45
1010.03 1010.45 1011.04 1011.53 1012.09 1012.84 1013.61 1014.31 1014.66 1015.06 1015.98 1016.66 1017.12 1017.61 1018.21 1018.90 1019.35 1020.06 1020.63 1021.03 1021.56 1021.87
1009.19 1009.96 1010.58 1010.89 1011.34 1011.89 1012.58 1013.27 1014.35 1014.59 1015.29 1015.86 1016.33 1016.88 1017.28 1018.10 1018.84 1019.60 1019.98 1020.64 1021.08 1021.19
1008.51 1009.00 1009.47 1010.17 1011.28 1011.55 1012.60 1013.20 1013.11 1013.78 1014.39 1015.11 1016.02 1016.69 1017.22 1017.95 1018.49 1019.43 1020.15 1020.48 1020.70 1020.84
1008.28 1008.94 1009.40 1009.88 1009.98 1011.04 1011.99 1012.35 1012.61 1013.77 1014.61 1015.22 1015.96 1016.62 1016.79 1017.53 1018.41 1019.22 1019.84 1020.29 1020.60 1020.93
1008.39 1009.17 1009.81 1010.31 1010.91 1011.21 1011.96 1012.47 1013.10 1013.80 1014.45 1015.13 1015.76 1016.33 1017.04 1017.76 1018.14 1018.97 1019.67 1020.26 1020.62 1020.96
1008.98 1009.73 1010.18 1010.53 1010.99 1011.62 1012.18 1012.77 1013.08 1013.79 1014.48 1015.28 1015.81 1016.58 1017.26 1017.87 1018.50 1019.28 1019.89 1020.26 1020.75 1021.01
1009.32 1009.95 1010.52 1010.97 1011.42 1011.85 1012.39 1012.74 1013.10 1013.82 1014.72 1015.58 1016.29 1016.84 1017.49 1018.24 1019.08 1019.72 1020.17 1020.59 1020.95 1021.20
1009.68 1010.05 1010.65 1011.14 1011.54 1012.09 1012.48 1013.01 1013.66 1014.24 1015.08 1015.98 1017.26 1017.22 1018.00 1018.51 1019.24 1019.83 1020.41 1020.76 1021.07 1021.20
1009.98 1010.26 1010.75 1011.25 1011.85 1012.31 1012.80 1013.42 1014.20 1015.11 1015.73 1016.84 1017.48 1017.89 1018.45 1018.97 1019.49 1020.15 1020.61 1020.81 1021.06 1021.28
1010.45 1010.87 1011.31 1011.74 1012.16 1012.76 1013.52 1014.29 1015.16 1016.02 1016.88 1017.81 1018.28 1018.88 1019.23 1019.64 1019.94 1020.52 1020.88 1021.23 1021.45 1021.53
Wind_Speed
19 11 13 14 11 10 10 11 11 10 7 7 8 6 5 5 6 9 4 7 4 2
16 17 14 14 12 11 12 9 9 10 8 7 7 10 10 8 9 7 7 7 6 5
17 16 14 11 14 14 11 10 9 8 9 9 10 11 11 10 10 10 7 7 9 4
16 15 14 13 14 13 10 9 9 9 9 11 12 13 11 10 10 10 10 7 7 8
13 12 12 13 8 5 5 6 10 11 11 11 13 12 12 12 11 10 9 8 7 9
12 11 11 13 13 13 12 13 11 12 14 15 14 13 13 13 10 8 8 9 9 8
11 14 13 12 10 8 15 14 14 14 14 13 13 12 11 9 9 7 5 5 5 5
6 7 10 11 12 10 11 11 12 11 10 10 9 8 10 9 6 6 5 5 5 4
9 8 6 6 7 8 6 8 10 10 11 12 7 14 11 7 7 6 7 6 4 2
9 8 7 7 9 9 9 9 10 10 10 8 8 10 9 10 5 6 5 5 4 3
9 9 9 9 8 9 8 8 9 9 8 8 5 12 13 12 7 6 6 6 5 5
7 9 9 8 9 8 8 7 6 7 8 8 5 14 12 10 7 7 6 5 4 4
7 8 8 8 9 7 7 7 7 9 10 10 10 13 13 9 5 5 3 4 4 7
7 7 8 8 7 7 9 9 9 11 9 9 8 9 13 11 5 3 3 3 3 2
Wind_Direction
217 215 213 210 201 201 201 205 198 195 174 171 172 168 125 111 103 103 67 102 99 64
213 214 213 207 202 198 204 199 186 185 177 161 144 135 129 128 123 127 133 146 164 191
209 211 209 199 201 202 197 190 179 173 156 146 135 139 140 142 148 156 168 172 183 201
213 210 204 201 204 202 188 180 168 158 155 153 156 157 155 160 161 164 174 168 189 209
210 206 208 214 200 163 154 169 163 158 164 168 167 165 165 166 168 174 180 187 195 213
196 191 190 194 180 152 166 183 170 168 177 178 181 172 167 167 166 174 182 191 200 209
196 189 188 170 175 192 182 171 169 185 183 176 172 169 161 156 153 172 201 210 220 200
148 153 167 175 173 167 176 175 167 163 160 159 159 166 160 153 154 152 153 172 140 126
121 130 144 129 133 134 142 139 145 153 154 147 147 144 162 153 149 159 159 155 136 135
113 113 120 129 129 133 144 150 147 144 140 134 116 146 143 124 123 132 130 118 113 101
137 137 140 136 139 137 142 141 132 126 119 121 107 116 119 122 115 106 97 93 87 83
145 140 140 141 139 137 130 124 124 120 118 113 106 121 120 109 112 105 96 92 73 68
135 131 134 133 136 137 124 112 100 90 99 100 110 107 108 113 115 106 103 73 61 39
134 137 137 134 135 116 106 100 100 102 93 101 99 101 99 97 83 94 85 60 33 11